Brno, Czech Republic

9:27 AM CET on January 17, 2018 (GMT +0100)
Turany

Weather History for LKTB - April, 2013

Change the Weather History Date:

Thursday, April 18, 2013

  Actual Average Record
Temperature  
Mean Temperature 60 °F -  
Max Temperature 74 °F 63 °F - ()
Min Temperature 46 °F 44 °F - ()
Degree Days  
Heating Degree Days 5    
Growing Degree Days 10 (Base 50)    
Moisture  
Dew Point 46 °F    
Average Humidity 56    
Maximum Humidity 81    
Minimum Humidity 33    
Precipitation  
Precipitation 0.00 in 0.06 in - ()
Sea Level Pressure  
Sea Level Pressure 30.10 in    
Wind  
Wind Speed 5 mph ()    
Max Wind Speed 13 mph    
Max Gust Speed -    
Visibility 14.0 miles    
Events      
T = Trace of Precipitation, MM = Missing Value Source: Averaged Metar Reports

Daily Weather History Graph

Daily Weather History Graph

Search for Another Location

Airport or City:

Trip Planner

Search our weather history database for the weather conditions in past years. The results will help you decide how hot, cold, wet, or windy it might be!

Date:

Astronomy

Apr. 18, 2013 Rise Set
Actual Time 5:55 AM CEST 7:50 PM CEST
Civil Twilight 5:22 AM CEST 8:24 PM CEST
Nautical Twilight 4:40 AM CEST 9:06 PM CEST
Astronomical Twilight 3:54 AM CEST 9:52 PM CEST
Moon 11:43 AM CEST (4/18) 2:02 AM CEST (4/18)
Length of Visible Light 15h 01m
Length of Day
13h 54m
Waxing Crescent, 49% of the Moon is Illuminated
Apr 18
Waxing Crescent
Apr 18
First Quarter
Apr 25
Full
May 2
Last Quarter
May 10
New

Hourly Weather History & Observations

Time (CEST) Temp. Windchill Dew Point Humidity Pressure Visibility Wind Dir Wind Speed Gust Speed Precip Events Conditions
12:00 AM 59.0 °F - 44.6 °F 59% 30.18 in - NE 5.8 mph - N/A   Clear
12:30 AM 57.2 °F - 44.6 °F 63% 30.18 in - NE 4.6 mph - N/A   Clear
1:00 AM 57.2 °F - 44.6 °F 63% 30.18 in - ENE 4.6 mph - N/A   Clear
1:30 AM 57.2 °F - 44.6 °F 63% 30.18 in - NE 4.6 mph - N/A   Clear
2:00 AM 57 °F - 44 °F 53% 30.18 in 12 mi NNE 4.5 mph - -   Clear
2:00 AM 57.2 °F - 44.6 °F 63% 30.18 in - NNE 4.6 mph - N/A   Clear
2:30 AM 55.4 °F - 42.8 °F 63% 30.15 in - NE 4.6 mph - N/A   Clear
3:00 AM 53.6 °F - 42.8 °F 67% 30.15 in - NNE 5.8 mph - N/A   Clear
3:30 AM 51.8 °F - 42.8 °F 71% 30.15 in - NE 5.8 mph - N/A   Clear
4:00 AM 48.2 °F - 41.0 °F 76% 30.15 in - ENE 4.6 mph - N/A   Clear
4:30 AM 51.8 °F - 42.8 °F 71% 30.15 in - ENE 5.8 mph - N/A   Clear
5:00 AM 50.0 °F - 42.8 °F 76% 30.15 in - NE 5.8 mph - N/A   Clear
5:30 AM 50.0 °F - 42.8 °F 76% 30.15 in - NE 5.8 mph - N/A   Clear
6:00 AM 46.4 °F 43.5 °F 41.0 °F 81% 30.15 in - NE 5.8 mph - N/A   Clear
6:30 AM 50.0 °F - 42.8 °F 76% 30.15 in - Variable 2.3 mph - N/A   Clear
7:00 AM 51.8 °F - 44.6 °F 76% 30.15 in - Variable 1.2 mph - N/A   Clear
7:30 AM 51.8 °F - 42.8 °F 71% 30.15 in - Variable 1.2 mph - N/A   Clear
8:00 AM 54 °F - 47 °F 72% 30.17 in 11 mi ENE 4.5 mph - -   Clear
8:00 AM 53.6 °F - 46.4 °F 77% 30.15 in - ENE 3.5 mph - N/A   Clear
8:30 AM 57.2 °F - 44.6 °F 63% 30.15 in - NE 3.5 mph - N/A   Clear
9:00 AM 59.0 °F - 46.4 °F 63% 30.15 in - East 4.6 mph - N/A   Clear
9:30 AM 60.8 °F - 44.6 °F 55% 30.12 in - ESE 4.6 mph - N/A   Clear
10:00 AM 62.6 °F - 44.6 °F 52% 30.12 in - SE 6.9 mph - N/A   Clear
10:30 AM 64.4 °F - 46.4 °F 52% 30.12 in - SE 5.8 mph - N/A   Clear
11:00 AM 66.2 °F - 48.2 °F 52% 30.12 in - South 4.6 mph - N/A   Clear
11:30 AM 68.0 °F - 48.2 °F 49% 30.12 in - SSE 6.9 mph - N/A   Clear
12:00 PM 69.8 °F - 50.0 °F 49% 30.09 in - South 12.7 mph - N/A   Clear
12:30 PM 69.8 °F - 48.2 °F 46% 30.09 in - South 9.2 mph - N/A   Clear
1:00 PM 71.6 °F - 50.0 °F 46% 30.09 in - South 9.2 mph - N/A   Clear
1:30 PM 73.4 °F - 50.0 °F 44% 30.09 in - South 9.2 mph - N/A   Clear
2:00 PM 73 °F - 50 °F 33% 30.06 in 19 mi South 13.4 mph - -   Scattered Clouds
2:00 PM 71.6 °F - 48.2 °F 43% 30.06 in - South 12.7 mph - N/A   Clear
2:30 PM 73.4 °F - 48.2 °F 41% 30.06 in - South 12.7 mph - N/A   Clear
3:00 PM 73.4 °F - 48.2 °F 41% 30.06 in - South 11.5 mph - N/A   Clear
3:30 PM 73.4 °F - 48.2 °F 41% 30.06 in - South 10.4 mph - N/A   Clear
4:00 PM 73.4 °F - 48.2 °F 41% 30.04 in - South 12.7 mph - N/A   Clear
4:30 PM 73.4 °F - 50.0 °F 44% 30.04 in - South 10.4 mph - N/A   Clear
5:00 PM 73.4 °F - 50.0 °F 44% 30.04 in - South 9.2 mph - N/A   Clear
5:30 PM 71.6 °F - 50.0 °F 46% 30.04 in - SSE 10.4 mph - N/A   Clear
6:00 PM 71.6 °F - 50.0 °F 46% 30.04 in - SSE 8.1 mph - N/A   Clear
6:30 PM 69.8 °F - 50.0 °F 49% 30.01 in - SSE 6.9 mph - N/A   Clear
7:00 PM 69.8 °F - 50.0 °F 49% 30.01 in - SSE 6.9 mph - N/A   Clear
7:30 PM 68.0 °F - 48.2 °F 49% 30.01 in - South 4.6 mph - N/A   Clear
8:00 PM 66 °F - 48 °F 42% 30.02 in 22 mi SE 4.5 mph - -   Clear
8:00 PM 66.2 °F - 48.2 °F 52% 30.04 in - SSE 3.5 mph - N/A   Clear
8:30 PM 66.2 °F - 48.2 °F 52% 30.04 in - ESE 3.5 mph - N/A   Clear
9:00 PM 64.4 °F - 46.4 °F 52% 30.04 in - SE 3.5 mph - N/A   Clear
9:30 PM 64.4 °F - 48.2 °F 56% 30.04 in - Variable 1.2 mph - N/A   Clear
10:00 PM 64.4 °F - 46.4 °F 52% 30.04 in - NE 4.6 mph - N/A   Clear
10:30 PM 62.6 °F - 46.4 °F 55% 30.04 in - NE 4.6 mph - N/A   Clear
11:00 PM 60.8 °F - 46.4 °F 59% 30.04 in - NE 6.9 mph - N/A   Clear
11:30 PM 60.8 °F - 46.4 °F 59% 30.04 in - NE 6.9 mph - N/A   Clear